| time (UTC) | temp F | wind direction | speed knots | gust knots | rain 1hr in | rain 24hr in | rain mn in | humidity % | barometer mb |
| 20260503050445 | 45 | 35 | 2.6 | 2.6 | 0.00 | 0.00 | 0.00 | 60 | 1008.3 |
| 20260503045943 | 45 | 22 | 1.7 | 2.6 | 0.00 | 0.00 | 0.00 | 61 | 1008.1 |
| 20260503045441 | 45 | 32 | 0.9 | 0.9 | 0.00 | 0.00 | 0.00 | 60 | 1008.3 |
| 20260503044937 | 45 | 59 | 0.9 | 0.9 | 0.00 | 0.00 | 0.00 | 62 | 1008.3 |
| 20260503044434 | 45 | 356 | 3.5 | 4.3 | 0.00 | 0.00 | 0.00 | 61 | 1008.4 |
| 20260503043932 | 46 | 16 | 1.7 | 1.7 | 0.00 | 0.00 | 0.00 | 60 | 1008.3 |
| 20260503043428 | 46 | 49 | 2.6 | 2.6 | 0.00 | 0.00 | 0.00 | 59 | 1008.2 |
| 20260503042924 | 46 | 39 | 1.7 | 2.6 | 0.00 | 0.00 | 0.00 | 60 | 1008.3 |
| 20260503042421 | 46 | 13 | 2.6 | 2.6 | 0.00 | 0.00 | 0.00 | 60 | 1008.2 |
| 20260503041918 | 46 | 18 | 1.7 | 2.6 | 0.00 | 0.00 | 0.00 | 60 | 1008.4 |
| 20260503041414 | 46 | 10 | 2.6 | 2.6 | 0.00 | 0.00 | 0.00 | 61 | 1008.3 |
| 20260503040912 | 46 | 18 | 1.7 | 1.7 | 0.00 | 0.00 | 0.00 | 60 | 1008.4 |
| 20260503040409 | 46 | 15 | 2.6 | 2.6 | 0.00 | 0.00 | 0.00 | 59 | 1008.3 |
| 20260503035907 | 46 | 18 | 2.6 | 2.6 | 0.00 | 0.05 | 0.05 | 61 | 1008.3 |
| 20260503035403 | 46 | 9 | 2.6 | 2.6 | 0.00 | 0.05 | 0.05 | 60 | 1008.5 |
| 20260503034900 | 46 | 7 | 2.6 | 2.6 | 0.00 | 0.05 | 0.05 | 59 | 1008.4 |
| 20260503034358 | 46 | 11 | 1.7 | 1.7 | 0.00 | 0.05 | 0.05 | 61 | 1008.4 |
| 20260503033855 | 47 | 19 | 2.6 | 2.6 | 0.00 | 0.05 | 0.05 | 59 | 1008.4 |
| 20260503033352 | 47 | 12 | 2.6 | 2.6 | 0.00 | 0.05 | 0.05 | 59 | 1008.4 |
| 20260503032850 | 47 | 0 | 0.9 | 1.7 | 0.00 | 0.05 | 0.05 | 59 | 1008.1 |
| 20260503032349 | 47 | 30 | 0.9 | 1.7 | 0.00 | 0.05 | 0.05 | 58 | 1008.2 |
| 20260503031846 | 47 | 27 | 3.5 | 4.3 | 0.00 | 0.05 | 0.05 | 58 | 1008.3 |
| 20260503031344 | 47 | 359 | 2.6 | 4.3 | 0.00 | 0.05 | 0.05 | 58 | 1008.3 |
| 20260503030840 | 47 | 20 | 2.6 | 2.6 | 0.00 | 0.05 | 0.05 | 58 | 1008.4 |
| 20260503030336 | 48 | 6 | 1.7 | 1.7 | 0.00 | 0.05 | 0.05 | 58 | 1008.4 |
| 20260503025833 | 48 | 15 | 2.6 | 2.6 | 0.00 | 0.05 | 0.05 | 56 | 1008.4 |
| 20260503025331 | 48 | 25 | 2.6 | 2.6 | 0.00 | 0.05 | 0.05 | 58 | 1008.3 |
| 20260503024827 | 48 | 14 | 0.9 | 1.7 | 0.00 | 0.05 | 0.05 | 56 | 1008.4 |
| 20260503024324 | 48 | 24 | 3.5 | 4.3 | 0.00 | 0.05 | 0.05 | 55 | 1008.3 |
| 20260503023821 | 48 | 76 | 0.9 | 1.7 | 0.00 | 0.05 | 0.05 | 57 | 1008.5 |
| 20260503023318 | 48 | 38 | 2.6 | 2.6 | 0.00 | 0.05 | 0.05 | 59 | 1008.4 |
| 20260503022815 | 49 | 34 | 0.9 | 0.9 | 0.00 | 0.05 | 0.05 | 58 | 1008.6 |
| 20260503022315 | 49 | 8 | 1.7 | 1.7 | 0.00 | 0.05 | 0.05 | 56 | 1008.5 |
| 20260503021811 | 49 | 24 | 0.9 | 1.7 | 0.00 | 0.05 | 0.05 | 57 | 1008.7 |
| 20260503021308 | 49 | 16 | 0.9 | 1.7 | 0.00 | 0.05 | 0.05 | 58 | 1008.7 |
| 20260503020805 | 49 | 44 | 1.7 | 1.7 | 0.00 | 0.05 | 0.05 | 58 | 1008.6 |
| 20260503020303 | 49 | 41 | 0.9 | 0.9 | 0.00 | 0.05 | 0.05 | 56 | 1008.5 |
| 20260503015759 | 49 | 31 | 0.9 | 0.9 | 0.00 | 0.05 | 0.05 | 56 | 1008.6 |
| 20260503015256 | 49 | 29 | 1.7 | 1.7 | 0.00 | 0.05 | 0.05 | 57 | 1008.5 |
| 20260503014752 | 49 | 28 | 0.9 | 0.9 | 0.00 | 0.05 | 0.05 | 56 | 1008.3 |
| 20260503014250 | 49 | 16 | 0.9 | 1.7 | 0.00 | 0.05 | 0.05 | 56 | 1008.6 |
| 20260503013747 | 49 | 29 | 0.9 | 0.9 | 0.00 | 0.05 | 0.05 | 56 | 1008.4 |
| 20260503013244 | 49 | 13 | 0.9 | 0.9 | 0.00 | 0.05 | 0.05 | 56 | 1008.6 |
| 20260503012741 | 50 | 32 | 0.9 | 1.7 | 0.00 | 0.05 | 0.05 | 56 | 1008.5 |
| 20260503012239 | 50 | 16 | 1.7 | 1.7 | 0.00 | 0.05 | 0.05 | 55 | 1008.4 |
| 20260503011735 | 50 | 37 | 0.9 | 1.7 | 0.00 | 0.05 | 0.05 | 56 | 1008.5 |
| 20260503011232 | 50 | 15 | 1.7 | 1.7 | 0.00 | 0.05 | 0.05 | 55 | 1008.4 |
| 20260503010728 | 50 | 13 | 0.9 | 1.7 | 0.00 | 0.05 | 0.05 | 54 | 1008.5 |
| 20260503010225 | 50 | 29 | 1.7 | 1.7 | 0.00 | 0.05 | 0.05 | 53 | 1008.4 |
| 20260503005723 | 50 | 353 | 1.7 | 1.7 | 0.00 | 0.05 | 0.05 | 54 | 1008.3 |
| 20260503005220 | 51 | 20 | 1.7 | 1.7 | 0.00 | 0.05 | 0.05 | 53 | 1008.4 |
| 20260503004716 | 51 | 15 | 2.6 | 2.6 | 0.00 | 0.05 | 0.05 | 54 | 1008.4 |
| 20260503004215 | 51 | 26 | 2.6 | 2.6 | 0.00 | 0.05 | 0.05 | 55 | 1008.3 |
| 20260503003711 | 51 | 5 | 2.6 | 2.6 | 0.00 | 0.05 | 0.05 | 55 | 1008.1 |
| 20260503003209 | 51 | 17 | 2.6 | 4.3 | 0.00 | 0.05 | 0.05 | 57 | 1008.2 |
| 20260503002705 | 51 | 17 | 2.6 | 2.6 | 0.00 | 0.05 | 0.05 | 60 | 1008.2 |
| 20260503002202 | 51 | 354 | 1.7 | 1.7 | 0.00 | 0.05 | 0.05 | 60 | 1008.1 |
| 20260503001658 | 51 | 5 | 2.6 | 2.6 | 0.00 | 0.05 | 0.05 | 58 | 1008.0 |
| 20260503001155 | 51 | 10 | 1.7 | 1.7 | 0.00 | 0.05 | 0.05 | 61 | 1007.8 |
| 20260503000652 | 51 | 15 | 0.9 | 1.7 | 0.00 | 0.05 | 0.05 | 61 | 1007.9 |
| 20260503000149 | 51 | 30 | 0.9 | 0.9 | 0.00 | 0.05 | 0.05 | 61 | 1008.0 |
| 20260502235646 | 51 | 44 | 0.0 | 0.0 | 0.00 | 0.05 | 0.05 | 62 | 1007.9 |
| 20260502235144 | 51 | 28 | 0.0 | 0.9 | 0.00 | 0.05 | 0.05 | 62 | 1007.7 |
| 20260502234640 | 52 | 22 | 0.9 | 0.9 | 0.00 | 0.05 | 0.05 | 63 | 1007.8 |
| 20260502234138 | 52 | 7 | 0.9 | 1.7 | 0.00 | 0.05 | 0.05 | 60 | 1007.7 |
| 20260502233633 | 52 | 18 | 0.9 | 0.9 | 0.00 | 0.05 | 0.05 | 61 | 1007.5 |
| 20260502233130 | 52 | 28 | 0.9 | 0.9 | 0.00 | 0.05 | 0.05 | 59 | 1007.5 |
| 20260502232626 | 53 | 27 | 0.9 | 1.7 | 0.00 | 0.05 | 0.05 | 58 | 1007.5 |
| 20260502232124 | 53 | 26 | 0.9 | 0.9 | 0.00 | 0.05 | 0.05 | 57 | 1007.5 |
| 20260502231620 | 53 | 28 | 0.9 | 1.7 | 0.00 | 0.05 | 0.05 | 56 | 1007.5 |
| 20260502231118 | 53 | 30 | 0.9 | 0.9 | 0.00 | 0.05 | 0.05 | 54 | 1007.6 |
| 20260502230616 | 54 | 18 | 1.7 | 1.7 | 0.00 | 0.05 | 0.05 | 54 | 1007.4 |
| 20260502230114 | 54 | 36 | 0.9 | 1.7 | 0.00 | 0.05 | 0.05 | 50 | 1007.3 |
| 20260502225609 | 54 | 354 | 0.9 | 0.9 | 0.00 | 0.05 | 0.05 | 51 | 1007.3 |
| 20260502225107 | 54 | 27 | 0.9 | 0.9 | 0.00 | 0.05 | 0.05 | 55 | 1007.4 |
| 20260502224603 | 55 | 51 | 0.0 | 0.0 | 0.00 | 0.05 | 0.05 | 56 | 1007.4 |
| 20260502224100 | 55 | 20 | 0.9 | 0.9 | 0.00 | 0.05 | 0.05 | 55 | 1007.4 |
| 20260502223558 | 55 | 30 | 0.0 | 0.0 | 0.00 | 0.05 | 0.05 | 53 | 1007.2 |
| 20260502223056 | 55 | 7 | 0.9 | 0.9 | 0.00 | 0.05 | 0.05 | 55 | 1007.2 |
| 20260502222553 | 55 | 38 | 0.0 | 0.0 | 0.00 | 0.05 | 0.05 | 52 | 1007.2 |
| 20260502222049 | 55 | 42 | 0.0 | 0.0 | 0.00 | 0.05 | 0.05 | 53 | 1007.2 |
| 20260502221545 | 55 | 28 | 0.9 | 0.9 | 0.00 | 0.05 | 0.05 | 56 | 1007.2 |
| 20260502221043 | 55 | 37 | 0.0 | 0.9 | 0.00 | 0.05 | 0.05 | 53 | 1007.1 |
| 20260502220538 | 55 | 17 | 0.9 | 0.9 | 0.00 | 0.05 | 0.05 | 51 | 1007.2 |
| 20260502220035 | 55 | 35 | 0.9 | 0.9 | 0.00 | 0.05 | 0.05 | 51 | 1007.2 |
| 20260502215532 | 55 | 41 | 0.0 | 0.0 | 0.00 | 0.05 | 0.05 | 53 | 1007.1 |
| 20260502215029 | 55 | 27 | 1.7 | 1.7 | 0.00 | 0.05 | 0.05 | 52 | 1007.0 |
| 20260502214526 | 56 | 39 | 0.9 | 1.7 | 0.00 | 0.05 | 0.05 | 51 | 1007.2 |
| 20260502214024 | 56 | 29 | 0.9 | 0.9 | 0.00 | 0.05 | 0.05 | 47 | 1007.1 |
| 20260502213520 | 56 | 16 | 1.7 | 1.7 | 0.00 | 0.05 | 0.05 | 45 | 1007.1 |
| 20260502213018 | 57 | 298 | 1.7 | 1.7 | 0.00 | 0.05 | 0.05 | 49 | 1007.1 |
| 20260502212517 | 57 | 26 | 0.9 | 1.7 | 0.00 | 0.05 | 0.05 | 46 | 1007.1 |
| 20260502212014 | 56 | 339 | 0.9 | 0.9 | 0.00 | 0.05 | 0.05 | 44 | 1007.0 |
| 20260502211509 | 56 | 320 | 0.9 | 0.9 | 0.00 | 0.05 | 0.05 | 53 | 1006.9 |
| 20260502211007 | 55 | 327 | 0.9 | 0.9 | 0.00 | 0.05 | 0.05 | 50 | 1007.0 |
| 20260502210504 | 56 | 310 | 0.9 | 0.9 | 0.00 | 0.05 | 0.05 | 55 | 1007.0 |
| 20260502210001 | 56 | 313 | 0.9 | 0.9 | 0.00 | 0.05 | 0.05 | 49 | 1006.9 |
| 20260502205456 | 58 | 3 | 1.7 | 1.7 | 0.00 | 0.05 | 0.05 | 47 | 1006.9 |
| 20260502204954 | 58 | 342 | 1.7 | 1.7 | 0.00 | 0.05 | 0.05 | 46 | 1007.1 |
| 20260502204451 | 59 | 330 | 0.9 | 1.7 | 0.00 | 0.05 | 0.05 | 48 | 1007.0 |
| 20260502203949 | 59 | 5 | 0.9 | 0.9 | 0.00 | 0.05 | 0.05 | 47 | 1006.9 |
| 20260502203446 | 59 | 266 | 1.7 | 1.7 | 0.00 | 0.05 | 0.05 | 52 | 1007.0 |
| 20260502202942 | 58 | 324 | 0.9 | 0.9 | 0.00 | 0.05 | 0.05 | 57 | 1007.0 |
| 20260502202439 | 57 | 15 | 2.6 | 2.6 | 0.00 | 0.05 | 0.05 | 52 | 1007.3 |
| 20260502201937 | 57 | 19 | 0.0 | 0.0 | 0.00 | 0.05 | 0.05 | 54 | 1007.0 |
| 20260502201433 | 58 | 171 | 1.7 | 1.7 | 0.00 | 0.05 | 0.05 | 52 | 1007.1 |
| 20260502200930 | 58 | 51 | 0.0 | 0.0 | 0.00 | 0.05 | 0.05 | 59 | 1007.3 |
| 20260502200425 | 56 | 355 | 1.7 | 1.7 | 0.00 | 0.05 | 0.05 | 59 | 1007.4 |
| 20260502195923 | 57 | 48 | 0.9 | 0.9 | 0.00 | 0.05 | 0.05 | 53 | 1007.6 |
| 20260502195420 | 58 | 178 | 1.7 | 1.7 | 0.00 | 0.05 | 0.05 | 53 | 1007.4 |
| 20260502194916 | 57 | 34 | 0.0 | 0.0 | 0.00 | 0.05 | 0.05 | 59 | 1007.5 |
| 20260502194414 | 56 | 57 | 0.9 | 0.9 | 0.00 | 0.05 | 0.05 | 58 | 1007.5 |
| 20260502193909 | 58 | 355 | 1.7 | 1.7 | 0.00 | 0.05 | 0.05 | 56 | 1007.6 |
| 20260502193407 | 57 | 108 | 1.7 | 1.7 | 0.00 | 0.05 | 0.05 | 55 | 1007.7 |
| 20260502192902 | 59 | 348 | 0.9 | 0.9 | 0.00 | 0.05 | 0.05 | 55 | 1007.9 |
| 20260502192359 | 60 | 60 | 0.0 | 0.0 | 0.00 | 0.05 | 0.05 | 61 | 1007.8 |
| 20260502191856 | 60 | 317 | 0.0 | 0.0 | 0.00 | 0.05 | 0.05 | 57 | 1008.0 |
| 20260502191354 | 58 | 355 | 0.0 | 0.0 | 0.00 | 0.05 | 0.05 | 60 | 1008.1 |
| 20260502190851 | 58 | 7 | 3.5 | 4.3 | 0.00 | 0.05 | 0.05 | 62 | 1008.4 |
| 20260502190349 | 57 | 17 | 1.7 | 1.7 | 0.00 | 0.05 | 0.05 | 62 | 1008.3 |
| 20260502185844 | 56 | 25 | 1.7 | 1.7 | 0.00 | 0.05 | 0.05 | 63 | 1008.1 |
| 20260502185340 | 56 | 6 | 0.9 | 1.7 | 0.00 | 0.05 | 0.05 | 63 | 1008.3 |
| 20260502184837 | 56 | 54 | 0.9 | 0.9 | 0.00 | 0.05 | 0.05 | 64 | 1008.4 |
| 20260502184333 | 57 | 348 | 2.6 | 2.6 | 0.00 | 0.05 | 0.05 | 65 | 1008.4 |
| 20260502183829 | 56 | 15 | 3.5 | 4.3 | 0.00 | 0.05 | 0.05 | 62 | 1008.5 |
| 20260502183326 | 56 | 6 | 1.7 | 1.7 | 0.00 | 0.05 | 0.05 | 64 | 1008.5 |
| 20260502182821 | 55 | 315 | 1.7 | 2.6 | 0.00 | 0.05 | 0.05 | 66 | 1008.5 |
| 20260502182316 | 56 | 19 | 1.7 | 1.7 | 0.00 | 0.05 | 0.05 | 63 | 1008.6 |
| 20260502181813 | 57 | 24 | 2.6 | 2.6 | 0.00 | 0.05 | 0.05 | 64 | 1008.5 |
| 20260502181312 | 56 | 27 | 1.7 | 2.6 | 0.00 | 0.05 | 0.05 | 67 | 1008.6 |
| 20260502180809 | 54 | 11 | 0.0 | 0.9 | 0.00 | 0.05 | 0.05 | 73 | 1008.6 |
| 20260502180307 | 54 | 351 | 2.6 | 2.6 | 0.00 | 0.05 | 0.05 | 73 | 1008.6 |
| 20260502170226 | 52 | 2 | 3.5 | 5.2 | 0.00 | 0.05 | 0.05 | 78 | 1009.0 |
| 20260502164207 | 52 | 29 | 0.9 | 1.7 | 0.00 | 0.05 | 0.05 | 81 | 1009.0 |
| 20260502163702 | 52 | 22 | 2.6 | 2.6 | 0.00 | 0.05 | 0.05 | 80 | 1009.3 |
| 20260502163159 | 51 | 32 | 2.6 | 2.6 | 0.00 | 0.05 | 0.05 | 81 | 1009.0 |
| 20260502162656 | 50 | 14 | 2.6 | 2.6 | 0.00 | 0.05 | 0.05 | 82 | 1009.1 |
| 20260502162153 | 51 | 19 | 2.6 | 2.6 | 0.00 | 0.05 | 0.05 | 81 | 1009.2 |
| 20260502161650 | 51 | 4 | 3.5 | 5.2 | 0.00 | 0.05 | 0.05 | 80 | 1009.2 |
| 20260502161147 | 54 | 38 | 3.5 | 6.1 | 0.00 | 0.05 | 0.05 | 77 | 1009.1 |
| 20260502160645 | 55 | 318 | 1.7 | 1.7 | 0.00 | 0.05 | 0.05 | 75 | 1009.1 |
| 20260502160144 | 55 | 26 | 0.9 | 1.7 | 0.00 | 0.05 | 0.05 | 73 | 1008.8 |
| 20260502152057 | 53 | 282 | 1.7 | 1.7 | 0.00 | 0.05 | 0.05 | 81 | 1009.1 |
| 20260502151554 | 53 | 0 | 0.9 | 0.9 | 0.00 | 0.05 | 0.05 | 78 | 1009.0 |
| 20260502151052 | 53 | 336 | 0.9 | 1.7 | 0.00 | 0.05 | 0.05 | 80 | 1008.9 |
| 20260502150549 | 53 | 148 | 0.0 | 0.9 | 0.00 | 0.05 | 0.05 | 79 | 1009.1 |
| 20260502130434 | 49 | 326 | 0.9 | 0.9 | 0.00 | 0.05 | 0.05 | 96 | 1009.3 |
| 20260502123417 | 48 | 99 | 0.0 | 0.9 | 0.00 | 0.05 | 0.05 | 99 | 1009.1 |
| 20260502122914 | 48 | 106 | 0.0 | 0.0 | 0.00 | 0.05 | 0.05 | 99 | 1009.2 |
| 20260502122410 | 48 | 239 | 0.0 | 0.9 | 0.00 | 0.05 | 0.05 | 99 | 1009.4 |
| 20260502121908 | 48 | 23 | 0.0 | 0.9 | 0.00 | 0.05 | 0.05 | 99 | 1009.4 |
| 20260502121405 | 47 | 28 | 0.0 | 0.9 | 0.00 | 0.05 | 0.05 | 99 | 1009.1 |
| 20260502120903 | 48 | 23 | 0.9 | 0.9 | 0.00 | 0.05 | 0.05 | 99 | 1009.1 |
| 20260502120358 | 48 | 49 | 0.0 | 0.0 | 0.00 | 0.05 | 0.05 | 99 | 1009.3 |
| 20260502115856 | 47 | 50 | 0.0 | 0.0 | 0.00 | 0.05 | 0.05 | 99 | 1009.4 |
| 20260502115353 | 47 | 51 | 0.0 | 0.0 | 0.00 | 0.05 | 0.05 | 99 | 1009.5 |
| 20260502114849 | 47 | 75 | 0.0 | 0.0 | 0.00 | 0.05 | 0.05 | 99 | 1009.2 |
| 20260502114346 | 47 | 49 | 0.0 | 0.0 | 0.00 | 0.05 | 0.05 | 99 | 1009.4 |
| 20260502113843 | 47 | 56 | 0.0 | 0.0 | 0.00 | 0.05 | 0.05 | 99 | 1009.4 |
| 20260502113341 | 47 | 56 | 0.0 | 0.0 | 0.00 | 0.05 | 0.05 | 99 | 1009.2 |
| 20260502112839 | 47 | 56 | 0.0 | 0.0 | 0.00 | 0.05 | 0.05 | 99 | 1009.2 |
| 20260502112336 | 47 | 56 | 0.0 | 0.0 | 0.00 | 0.05 | 0.05 | 99 | 1009.3 |
| 20260502111834 | 47 | 56 | 0.0 | 0.0 | 0.00 | 0.05 | 0.05 | 99 | 1009.1 |
| 20260502111331 | 47 | 56 | 0.0 | 0.0 | 0.00 | 0.05 | 0.05 | 99 | 1009.1 |
| 20260502110828 | 47 | 49 | 0.0 | 0.0 | 0.00 | 0.05 | 0.05 | 99 | 1008.9 |
| 20260502110326 | 47 | 50 | 0.0 | 0.0 | 0.00 | 0.05 | 0.05 | 99 | 1009.0 |
| 20260502105823 | 46 | 64 | 0.0 | 0.0 | 0.00 | 0.05 | 0.05 | 99 | 1009.0 |
| 20260502105320 | 46 | 68 | 0.0 | 0.0 | 0.00 | 0.05 | 0.05 | 99 | 1008.9 |
| 20260502104818 | 46 | 68 | 0.0 | 0.0 | 0.00 | 0.05 | 0.05 | 99 | 1008.8 |
| 20260502104315 | 46 | 68 | 0.0 | 0.0 | 0.00 | 0.05 | 0.05 | 99 | 1008.9 |
| 20260502103812 | 46 | 64 | 0.0 | 0.0 | 0.00 | 0.05 | 0.05 | 99 | 1009.1 |
| 20260502103309 | 46 | 63 | 0.0 | 0.0 | 0.00 | 0.05 | 0.05 | 99 | 1009.0 |
| 20260502102807 | 46 | 66 | 0.0 | 0.0 | 0.00 | 0.05 | 0.05 | 99 | 1009.0 |
| 20260502102306 | 46 | 73 | 0.0 | 0.0 | 0.00 | 0.05 | 0.05 | 99 | 1008.8 |
| 20260502101801 | 46 | 74 | 0.0 | 0.0 | 0.00 | 0.05 | 0.05 | 99 | 1008.8 |
| 20260502101259 | 46 | 74 | 0.0 | 0.0 | 0.00 | 0.05 | 0.05 | 99 | 1008.6 |
| 20260502100756 | 46 | 70 | 0.0 | 0.0 | 0.00 | 0.05 | 0.05 | 99 | 1008.9 |
| 20260502100255 | 46 | 70 | 0.0 | 0.0 | 0.07 | 0.05 | 0.05 | 99 | 1008.8 |
| 20260502091229 | 47 | 56 | 0.0 | 0.0 | 0.00 | 0.01 | 0.01 | 99 | 1008.5 |
| 20260502090727 | 47 | 51 | 0.0 | 0.0 | 0.00 | 0.01 | 0.01 | 99 | 1008.6 |
| 20260502090223 | 47 | 57 | 0.0 | 0.0 | 0.00 | 0.01 | 0.01 | 99 | 1008.6 |
| 20260502071119 | 47 | 60 | 0.0 | 0.0 | 0.00 | 0.00 | 0.00 | 97 | 1008.6 |
| 20260502070617 | 47 | 52 | 0.0 | 0.0 | 0.00 | 0.00 | 0.00 | 97 | 1008.5 |
| 20260502070115 | 47 | 56 | 0.0 | 0.0 | 0.00 | 0.00 | 0.00 | 97 | 1008.6 |
| 20260502065613 | 47 | 58 | 0.0 | 0.0 | 0.00 | 0.00 | 0.00 | 97 | 1008.6 |
| 20260502065110 | 47 | 52 | 0.0 | 0.0 | 0.00 | 0.00 | 0.00 | 97 | 1008.9 |
| 20260502064609 | 47 | 62 | 0.0 | 0.0 | 0.00 | 0.00 | 0.00 | 96 | 1008.7 |
| 20260502064105 | 47 | 67 | 0.0 | 0.0 | 0.00 | 0.00 | 0.00 | 96 | 1008.8 |
| 20260502063603 | 47 | 66 | 0.0 | 0.0 | 0.00 | 0.00 | 0.00 | 96 | 1008.7 |
| 20260502063101 | 47 | 60 | 0.0 | 0.0 | 0.00 | 0.00 | 0.00 | 96 | 1008.8 |
| 20260502062558 | 47 | 80 | 0.0 | 0.0 | 0.00 | 0.00 | 0.00 | 96 | 1008.6 |
| 20260502062055 | 47 | 72 | 0.0 | 0.0 | 0.00 | 0.00 | 0.00 | 96 | 1008.7 |
| 20260502061553 | 47 | 66 | 0.0 | 0.0 | 0.00 | 0.00 | 0.00 | 96 | 1008.8 |
| 20260502061050 | 47 | 64 | 0.0 | 0.0 | 0.00 | 0.00 | 0.00 | 96 | 1008.8 |
| 20260502060545 | 47 | 107 | 0.0 | 0.0 | 0.00 | 0.00 | 0.00 | 95 | 1008.8 |
| 20260502060042 | 47 | 70 | 0.0 | 0.0 | 0.00 | 0.00 | 0.00 | 95 | 1008.9 |
| 20260502055540 | 47 | 78 | 0.0 | 0.0 | 0.00 | 0.00 | 0.00 | 95 | 1008.9 |
| 20260502055038 | 47 | 99 | 0.0 | 0.0 | 0.00 | 0.00 | 0.00 | 94 | 1008.9 |
| 20260502054537 | 47 | 66 | 0.0 | 0.0 | 0.00 | 0.00 | 0.00 | 94 | 1008.9 |
| 20260502054033 | 47 | 72 | 0.0 | 0.0 | 0.00 | 0.00 | 0.00 | 94 | 1008.9 |
| 20260502053530 | 47 | 66 | 0.0 | 0.0 | 0.00 | 0.00 | 0.00 | 93 | 1009.1 |
| 20260502053028 | 47 | 58 | 0.0 | 0.0 | 0.00 | 0.00 | 0.00 | 93 | 1008.9 |
| 20260502052527 | 47 | 67 | 0.0 | 0.0 | 0.00 | 0.00 | 0.00 | 93 | 1008.8 |
| 20260502052024 | 48 | 55 | 0.0 | 0.0 | 0.00 | 0.00 | 0.00 | 93 | 1008.9 |
| 20260502051522 | 48 | 63 | 0.0 | 0.0 | 0.00 | 0.00 | 0.00 | 93 | 1008.9 |
| 20260502051020 | 47 | 63 | 0.0 | 0.0 | 0.00 | 0.00 | 0.00 | 93 | 1008.9 |